• In Hungary
  • List of Countries
  • For 7 days
  • Water Temperature
  • Satellite Maps
  • Weather Map
  • News
  • Weather Widgets
  • user-avatar
    Login

    Hourly Weather Ciutadella

    Today, 26 May, Saturday

    Time Temperature Precipitation Wind Pressure Humidity
    00:00 +19°C° 0 mm 4 mps 759 mmHg 85%
    01:00 +19°C° 0.6 mm 4 mps 759 mmHg 86%
    02:00 +19°C° 0.6 mm 4 mps 759 mmHg 86%
    03:00 +19°C° 0.6 mm 4 mps 759 mmHg 87%
    04:00 +20°C° 0.4 mm 5 mps 759 mmHg 84%
    05:00 +20°C° 0.4 mm 6 mps 759 mmHg 82%
    06:00 +20°C° 0.4 mm 6 mps 759 mmHg 80%
    07:00 +21°C° 0.2 mm 6 mps 759 mmHg 76%
    08:00 +23°C° 0.2 mm 6 mps 759 mmHg 71%
    09:00 +24°C° 0.2 mm 6 mps 759 mmHg 67%
    10:00 +24°C° 0 mm 7 mps 760 mmHg 65%
    11:00 +26°C° 0 mm 7 mps 760 mmHg 62%
    12:00 +27°C° 0 mm 7 mps 760 mmHg 59%
    13:00 +26°C° 0 mm 7 mps 760 mmHg 61%
    14:00 +26°C° 0 mm 7 mps 759 mmHg 63%
    15:00 +26°C° 0 mm 7 mps 759 mmHg 65%
    16:00 +24°C° 0 mm 7 mps 759 mmHg 68%
    17:00 +23°C° 0 mm 7 mps 759 mmHg 72%
    18:00 +22°C° 0 mm 7 mps 759 mmHg 75%
    19:00 +22°C° 0 mm 6 mps 759 mmHg 77%
    20:00 +21°C° 0 mm 6 mps 759 mmHg 79%
    21:00 +21°C° 0 mm 5 mps 759 mmHg 81%
    22:00 +21°C° 0 mm 5 mps 759 mmHg 82%
    23:00 +21°C° 0 mm 5 mps 759 mmHg 83%

    Tomorrow, 27 May, Sunday

    Time Temperature Precipitation Wind Pressure Humidity
    00:00 +20°C° 0 mm 4 mps 759 mmHg 83%
    01:00 +20°C° 0 mm 4 mps 758 mmHg 85%
    02:00 +20°C° 0 mm 4 mps 758 mmHg 86%
    03:00 +20°C° 0 mm 4 mps 758 mmHg 87%
    04:00 +20°C° 0 mm 4 mps 758 mmHg 85%
    05:00 +21°C° 0 mm 4 mps 758 mmHg 83%
    06:00 +21°C° 0 mm 5 mps 758 mmHg 81%
    07:00 +22°C° 0 mm 4 mps 758 mmHg 78%
    08:00 +23°C° 0 mm 4 mps 758 mmHg 74%
    09:00 +25°C° 0 mm 4 mps 759 mmHg 70%
    10:00 +26°C° 0 mm 4 mps 759 mmHg 67%
    11:00 +27°C° 0 mm 4 mps 759 mmHg 64%
    12:00 +28°C° 0 mm 4 mps 759 mmHg 60%
    13:00 +28°C° 0 mm 4 mps 758 mmHg 62%
    14:00 +27°C° 0 mm 4 mps 758 mmHg 63%
    15:00 +27°C° 0 mm 5 mps 758 mmHg 65%
    16:00 +26°C° 0 mm 4 mps 758 mmHg 68%
    17:00 +26°C° 0 mm 4 mps 758 mmHg 71%
    18:00 +25°C° 0 mm 3 mps 758 mmHg 74%
    19:00 +23°C° 0 mm 4 mps 758 mmHg 77%
    20:00 +22°C° 0 mm 5 mps 759 mmHg 80%
    21:00 +21°C° 0 mm 5 mps 759 mmHg 82%
    22:00 +21°C° 0 mm 6 mps 759 mmHg 82%
    23:00 +21°C° 0 mm 7 mps 759 mmHg 82%

    Day after tomorrow, 28 May, Monday

    Time Temperature Precipitation Wind Pressure Humidity
    00:00 +21°C° 0 mm 7 mps 759 mmHg 82%
    01:00 +21°C° 0 mm 7 mps 759 mmHg 82%
    02:00 +21°C° 0 mm 6 mps 759 mmHg 81%
    03:00 +21°C° 0 mm 6 mps 759 mmHg 81%
    04:00 +21°C° 0 mm 5 mps 759 mmHg 81%
    05:00 +21°C° 0 mm 4 mps 759 mmHg 81%
    06:00 +21°C° 0 mm 4 mps 760 mmHg 82%
    07:00 +22°C° 0.1 mm 4 mps 760 mmHg 78%
    08:00 +23°C° 0.1 mm 4 mps 760 mmHg 74%
    09:00 +25°C° 0.1 mm 4 mps 760 mmHg 71%
    10:00 +23°C° 0.1 mm 4 mps 760 mmHg 73%
    11:00 +23°C° 0.1 mm 4 mps 760 mmHg 75%
    12:00 +23°C° 0.1 mm 4 mps 760 mmHg 77%
    13:00 +22°C° 0.4 mm 4 mps 760 mmHg 78%
    14:00 +22°C° 0.4 mm 3 mps 760 mmHg 79%
    15:00 +21°C° 0.4 mm 3 mps 760 mmHg 80%
    16:00 +21°C° 0.4 mm 3 mps 760 mmHg 82%
    17:00 +21°C° 0.4 mm 3 mps 760 mmHg 84%
    18:00 +21°C° 0.4 mm 2 mps 760 mmHg 85%
    19:00 +20°C° 0 mm 2 mps 760 mmHg 86%
    20:00 +21°C° 0 mm 1 mps 760 mmHg 86%
    21:00 +21°C° 0 mm 1 mps 761 mmHg 86%
    22:00 +21°C° 0 mm 1 mps 760 mmHg 86%
    23:00 +21°C° 0 mm 1 mps 760 mmHg 86%

    29 May, Tuesday

    Time Temperature Precipitation Wind Pressure Humidity
    00:00 +20°C° 0 mm 1 mps 760 mmHg 85%
    01:00 +21°C° 0 mm 1 mps 760 mmHg 84%
    02:00 +21°C° 0 mm 1 mps 760 mmHg 83%
    03:00 +21°C° 0 mm 1 mps 760 mmHg 83%
    04:00 +20°C° 0 mm 2 mps 759 mmHg 81%
    05:00 +21°C° 0 mm 2 mps 759 mmHg 79%
    06:00 +21°C° 0 mm 2 mps 759 mmHg 77%
    07:00 +23°C° 0 mm 2 mps 759 mmHg 72%
    08:00 +24°C° 0 mm 2 mps 759 mmHg 66%
    09:00 +25°C° 0 mm 3 mps 760 mmHg 61%
    10:00 +26°C° 0 mm 3 mps 759 mmHg 60%
    11:00 +26°C° 0 mm 3 mps 759 mmHg 58%
    12:00 +26°C° 0 mm 3 mps 759 mmHg 57%
    13:00 +26°C° 0 mm 3 mps 759 mmHg 58%
    14:00 +26°C° 0 mm 3 mps 758 mmHg 59%
    15:00 +26°C° 0 mm 3 mps 758 mmHg 59%
    16:00 +25°C° 0 mm 3 mps 758 mmHg 62%
    17:00 +24°C° 0 mm 2 mps 758 mmHg 65%
    18:00 +24°C° 0 mm 2 mps 758 mmHg 68%
    19:00 +23°C° 0 mm 2 mps 758 mmHg 72%
    20:00 +21°C° 0 mm 2 mps 759 mmHg 76%
    21:00 +20°C° 0 mm 2 mps 759 mmHg 79%
    22:00 +20°C° 0 mm 2 mps 759 mmHg 81%
    23:00 +20°C° 0 mm 2 mps 759 mmHg 82%

    30 May, Wednesday

    Time Temperature Precipitation Wind Pressure Humidity
    00:00 +20°C° 0 mm 2 mps 758 mmHg 83%
    01:00 +20°C° 0 mm 2 mps 758 mmHg 84%
    02:00 +19°C° 0 mm 2 mps 758 mmHg 86%
    03:00 +19°C° 0 mm 2 mps 758 mmHg 88%
    04:00 +20°C° 0 mm 2 mps 758 mmHg 86%
    05:00 +20°C° 0 mm 3 mps 758 mmHg 83%
    06:00 +21°C° 0 mm 3 mps 758 mmHg 81%
    07:00 +22°C° 0 mm 4 mps 758 mmHg 76%
    08:00 +22°C° 0 mm 4 mps 759 mmHg 71%
    09:00 +23°C° 0 mm 4 mps 759 mmHg 67%
    10:00 +25°C° 0 mm 4 mps 759 mmHg 63%
    11:00 +25°C° 0 mm 4 mps 759 mmHg 59%
    12:00 +26°C° 0 mm 4 mps 759 mmHg 56%
    13:00 +26°C° 0 mm 4 mps 758 mmHg 56%
    14:00 +25°C° 0 mm 5 mps 758 mmHg 56%
    15:00 +25°C° 0 mm 5 mps 758 mmHg 56%
    16:00 +23°C° 0 mm 6 mps 758 mmHg 62%
    17:00 +22°C° 0 mm 6 mps 758 mmHg 68%
    18:00 +21°C° 0 mm 7 mps 758 mmHg 74%
    19:00 +21°C° 0 mm 7 mps 758 mmHg 77%
    20:00 +20°C° 0 mm 7 mps 759 mmHg 81%
    21:00 +20°C° 0 mm 7 mps 759 mmHg 85%
    22:00 +20°C° 0 mm 6 mps 759 mmHg 86%
    23:00 +20°C° 0 mm 6 mps 759 mmHg 87%

    31 May, Thursday

    Time Temperature Precipitation Wind Pressure Humidity
    00:00 +20°C° 0 mm 6 mps 759 mmHg 89%
    01:00 +19°C° 0.1 mm 6 mps 759 mmHg 89%
    02:00 +19°C° 0.1 mm 5 mps 759 mmHg 89%
    03:00 +19°C° 0.1 mm 5 mps 759 mmHg 89%
    04:00 +20°C° 0.1 mm 4 mps 759 mmHg 87%
    05:00 +20°C° 0.1 mm 4 mps 759 mmHg 85%
    06:00 +20°C° 0.1 mm 4 mps 759 mmHg 83%
    07:00 +22°C° 0 mm 4 mps 759 mmHg 77%
    08:00 +23°C° 0 mm 4 mps 760 mmHg 71%
    09:00 +25°C° 0 mm 4 mps 760 mmHg 66%
    10:00 +25°C° 0 mm 3 mps 760 mmHg 63%
    11:00 +26°C° 0 mm 3 mps 760 mmHg 60%
    12:00 +27°C° 0 mm 3 mps 760 mmHg 58%
    13:00 +27°C° 0 mm 3 mps 760 mmHg 58%
    14:00 +27°C° 0 mm 3 mps 760 mmHg 58%
    15:00 +27°C° 0 mm 3 mps 760 mmHg 58%
    16:00 +26°C° 0 mm 3 mps 760 mmHg 62%
    17:00 +25°C° 0 mm 2 mps 760 mmHg 65%
    18:00 +25°C° 0 mm 2 mps 760 mmHg 68%
    19:00 +24°C° 0 mm 2 mps 761 mmHg 72%
    20:00 +23°C° 0 mm 2 mps 761 mmHg 77%
    21:00 +22°C° 0 mm 1 mps 762 mmHg 81%
    22:00 +21°C° 0 mm 1 mps 762 mmHg 81%
    23:00 +21°C° 0 mm 1 mps 762 mmHg 81%
    Show more